Location: Unspecified
(54.1780°N, 0.0000°E)
Time: 19:18:04
(UTC+00:00)

Vanguard 2 Rocket - Visible Passes

Search period start: 07 August 2020 00:00
Search period end: 17 August 2020 00:00
Orbit: 556 x 3324 km, 32.9° (Epoch: 07 August)

Date Brightness Start Highest point End Pass type
(mag) Time Alt. Az. Time Alt. Az. Time Alt. Az.
07 Aug 10.3 00:59:42 10° WSW 01:05:19 15° SW 01:05:19 15° SW visible
07 Aug 9.7 21:43:44 10° WSW 21:53:13 27° S 22:01:56 18° SSE visible
07 Aug 10.1 23:58:08 10° WSW 00:07:13 19° SSW 00:07:37 19° SSW visible
08 Aug 9.5 20:44:44 10° SW 20:53:05 26° S 21:04:25 11° SE visible
08 Aug 9.9 22:57:43 10° WSW 23:06:50 21° SSW 23:10:06 20° S visible
09 Aug 9.8 21:58:00 10° WSW 22:06:34 23° SSW 22:12:44 18° SSE visible
10 Aug 10.3 00:14:53 10° SW 00:18:27 12° SW 00:18:27 12° SW visible
10 Aug 9.6 20:58:48 10° SW 21:06:29 23° S 21:15:30 13° SSE visible
10 Aug 10.1 23:13:10 10° SW 23:20:06 15° SSW 23:21:13 15° SSW visible
11 Aug 9.5 20:00:01 10° SW 20:06:39 22° S 20:16:02 10° SE visible
11 Aug 9.9 22:12:52 10° SW 22:19:56 18° SSW 22:24:05 16° S visible
12 Aug 9.8 21:13:19 10° SW 21:19:56 19° SSW 21:27:03 12° SSE visible
13 Aug 9.6 20:14:18 10° SW 20:20:09 19° S 20:28:04 10° SSE visible
13 Aug 10.1 22:29:24 10° SW 22:33:20 12° SSW 22:35:50 11° SSW visible
14 Aug 9.9 21:28:49 10° SW 21:33:26 14° SSW 21:38:58 10° S visible
15 Aug 9.7 20:29:17 10° SW 20:33:42 14° S 20:39:11 10° SSE visible
